Year,Month,Day,Hour,Minute,Value (Times are PST for temperature in C)
2012,05,25,00,00,10.70
2012,05,25,00,01,10.70
2012,05,25,00,02,10.60
2012,05,25,00,03,10.60
2012,05,25,00,04,10.60
2012,05,25,00,05,10.60
2012,05,25,00,06,10.60
2012,05,25,00,07,10.60
2012,05,25,00,08,10.60
2012,05,25,00,09,10.50
2012,05,25,00,10,10.40
2012,05,25,00,11,10.40
2012,05,25,00,12,10.40
2012,05,25,00,13,10.40
2012,05,25,00,14,10.40
2012,05,25,00,15,10.40
2012,05,25,00,16,10.40
2012,05,25,00,17,10.30
2012,05,25,00,18,10.30
2012,05,25,00,19,10.30
2012,05,25,00,20,10.30
2012,05,25,00,21,10.20
2012,05,25,00,22,10.20
2012,05,25,00,23,10.20
2012,05,25,00,24,10.20
2012,05,25,00,25,10.10
2012,05,25,00,26,10.10
2012,05,25,00,27,10.10
2012,05,25,00,28,10.10
2012,05,25,00,29,10.10
2012,05,25,00,30,10.10
2012,05,25,00,31,10.10
2012,05,25,00,32,10.10
2012,05,25,00,33,10.10
2012,05,25,00,34,10.10
2012,05,25,00,35,10.10
2012,05,25,00,36,10.10
2012,05,25,00,37,10.10
2012,05,25,00,38,10.00
2012,05,25,00,39,9.90
2012,05,25,00,40,9.90
2012,05,25,00,41,9.90
2012,05,25,00,42,9.90
2012,05,25,00,43,9.90
2012,05,25,00,44,9.90
2012,05,25,00,45,9.90
2012,05,25,00,46,9.90
2012,05,25,00,47,9.90
2012,05,25,00,48,9.90
2012,05,25,00,49,9.90
2012,05,25,00,50,9.90
2012,05,25,00,51,9.90
2012,05,25,00,52,9.90
2012,05,25,00,53,9.80
2012,05,25,00,54,9.80
2012,05,25,00,55,9.80
2012,05,25,00,56,9.80
2012,05,25,00,57,9.80
2012,05,25,00,58,9.80
2012,05,25,00,59,9.80
2012,05,25,01,00,9.80
2012,05,25,01,01,9.80
2012,05,25,01,02,9.80
2012,05,25,01,03,9.80
2012,05,25,01,04,9.80
2012,05,25,01,05,9.80
2012,05,25,01,06,9.80
2012,05,25,01,07,9.80
2012,05,25,01,08,9.80
2012,05,25,01,09,9.70
2012,05,25,01,10,9.70
2012,05,25,01,11,9.70
2012,05,25,01,12,9.70
2012,05,25,01,13,9.70
2012,05,25,01,14,9.70
2012,05,25,01,15,9.70
2012,05,25,01,16,9.70
2012,05,25,01,17,9.70
2012,05,25,01,18,9.70
2012,05,25,01,19,9.70
2012,05,25,01,20,9.70
2012,05,25,01,21,9.70
2012,05,25,01,22,9.70
2012,05,25,01,23,9.70
2012,05,25,01,24,9.70
2012,05,25,01,25,9.70
2012,05,25,01,26,9.70
2012,05,25,01,27,9.70
2012,05,25,01,28,9.70
2012,05,25,01,29,9.70
2012,05,25,01,30,9.70
2012,05,25,01,31,9.70
2012,05,25,01,32,9.70
2012,05,25,01,33,9.70
2012,05,25,01,34,9.70
2012,05,25,01,35,9.70
2012,05,25,01,36,9.70
2012,05,25,01,37,9.60
2012,05,25,01,38,9.60
2012,05,25,01,39,9.60
2012,05,25,01,40,9.60
2012,05,25,01,41,9.60
2012,05,25,01,42,9.60
2012,05,25,01,43,9.60
2012,05,25,01,44,9.50
2012,05,25,01,45,9.50
2012,05,25,01,46,9.50
2012,05,25,01,47,9.50
2012,05,25,01,48,9.50
2012,05,25,01,49,9.50
2012,05,25,01,50,9.50
2012,05,25,01,51,9.50
2012,05,25,01,52,9.50
2012,05,25,01,53,9.50
2012,05,25,01,54,9.40
2012,05,25,01,55,9.40
2012,05,25,01,56,9.40
2012,05,25,01,57,9.40
2012,05,25,01,58,9.40
2012,05,25,01,59,9.40
2012,05,25,02,00,9.40
2012,05,25,02,01,9.40
2012,05,25,02,02,9.40
2012,05,25,02,03,9.40
2012,05,25,02,04,9.40
2012,05,25,02,05,9.40
2012,05,25,02,06,9.40
2012,05,25,02,07,9.40
2012,05,25,02,08,9.30
2012,05,25,02,09,9.30
2012,05,25,02,10,9.30
2012,05,25,02,11,9.30
2012,05,25,02,12,9.30
2012,05,25,02,13,9.20
2012,05,25,02,14,9.20
2012,05,25,02,15,9.20
2012,05,25,02,16,9.20
2012,05,25,02,17,9.20
2012,05,25,02,18,9.20
2012,05,25,02,19,9.20
2012,05,25,02,20,9.20
2012,05,25,02,21,9.20
2012,05,25,02,22,9.20
2012,05,25,02,23,9.20
2012,05,25,02,24,9.10
2012,05,25,02,25,9.10
2012,05,25,02,26,9.10
2012,05,25,02,27,9.10
2012,05,25,02,28,9.10
2012,05,25,02,29,9.10
2012,05,25,02,30,9.10
2012,05,25,02,31,9.10
2012,05,25,02,32,9.10
2012,05,25,02,33,9.10
2012,05,25,02,34,9.10
2012,05,25,02,35,9.10
2012,05,25,02,36,9.10
2012,05,25,02,37,9.10
2012,05,25,02,38,9.10
2012,05,25,02,39,9.10
2012,05,25,02,40,9.10
2012,05,25,02,41,9.10
2012,05,25,02,42,9.10
2012,05,25,02,43,9.00
2012,05,25,02,44,9.00
2012,05,25,02,45,9.00
2012,05,25,02,46,9.00
2012,05,25,02,47,8.90
2012,05,25,02,48,8.90
2012,05,25,02,49,8.90
2012,05,25,02,50,8.90
2012,05,25,02,51,8.90
2012,05,25,02,52,8.90
2012,05,25,02,53,8.90
2012,05,25,02,54,8.80
2012,05,25,02,55,8.80
2012,05,25,02,56,8.80
2012,05,25,02,57,8.80
2012,05,25,02,58,8.80
2012,05,25,02,59,8.80
2012,05,25,03,00,8.80
2012,05,25,03,01,8.80
2012,05,25,03,02,8.80
2012,05,25,03,03,8.80
2012,05,25,03,04,8.80
2012,05,25,03,05,8.80
2012,05,25,03,06,8.80
2012,05,25,03,07,8.70
2012,05,25,03,08,8.70
2012,05,25,03,09,8.70
2012,05,25,03,10,8.70
2012,05,25,03,11,8.70
2012,05,25,03,12,8.70
2012,05,25,03,13,8.70
2012,05,25,03,14,8.70
2012,05,25,03,15,8.70
2012,05,25,03,16,8.70
2012,05,25,03,17,8.70
2012,05,25,03,18,8.70
2012,05,25,03,19,8.70
2012,05,25,03,20,8.70
2012,05,25,03,21,8.70
2012,05,25,03,22,8.70
2012,05,25,03,23,8.70
2012,05,25,03,24,8.70
2012,05,25,03,25,8.60
2012,05,25,03,26,8.60
2012,05,25,03,27,8.60
2012,05,25,03,28,8.60
2012,05,25,03,29,8.60
2012,05,25,03,30,8.60
2012,05,25,03,31,8.60
2012,05,25,03,32,8.60
2012,05,25,03,33,8.60
2012,05,25,03,34,8.50
2012,05,25,03,35,8.50
2012,05,25,03,36,8.50
2012,05,25,03,37,8.50
2012,05,25,03,38,8.50
2012,05,25,03,39,8.40
2012,05,25,03,40,8.40
2012,05,25,03,41,8.40
2012,05,25,03,42,8.40
2012,05,25,03,43,8.40
2012,05,25,03,44,8.40
2012,05,25,03,45,8.40
2012,05,25,03,46,8.30
2012,05,25,03,47,8.30
2012,05,25,03,48,8.30
2012,05,25,03,49,8.30
2012,05,25,03,50,8.30
2012,05,25,03,51,8.30
2012,05,25,03,52,8.30
2012,05,25,03,53,8.30
2012,05,25,03,54,8.30
2012,05,25,03,55,8.30
2012,05,25,03,56,8.40
2012,05,25,03,57,8.40
2012,05,25,03,58,8.40
2012,05,25,03,59,8.40
2012,05,25,04,00,8.40
2012,05,25,04,01,8.50
2012,05,25,04,02,8.50
2012,05,25,04,03,8.50
2012,05,25,04,04,8.50
2012,05,25,04,05,8.50
2012,05,25,04,06,8.50
2012,05,25,04,07,8.50
2012,05,25,04,08,8.50
2012,05,25,04,09,8.50
2012,05,25,04,10,8.50
2012,05,25,04,11,8.50
2012,05,25,04,12,8.50
2012,05,25,04,13,8.50
2012,05,25,04,14,8.50
2012,05,25,04,15,8.50
2012,05,25,04,16,8.50
2012,05,25,04,17,8.50
2012,05,25,04,18,8.50
2012,05,25,04,19,8.50
2012,05,25,04,20,8.50
2012,05,25,04,21,8.50
2012,05,25,04,22,8.50
2012,05,25,04,23,8.50
2012,05,25,04,24,8.50
2012,05,25,04,25,8.50
2012,05,25,04,26,8.50
2012,05,25,04,27,8.50
2012,05,25,04,28,8.50
2012,05,25,04,29,8.50
2012,05,25,04,30,8.50
2012,05,25,04,31,8.50
2012,05,25,04,32,8.50
2012,05,25,04,33,8.50
2012,05,25,04,34,8.50
2012,05,25,04,35,8.60
2012,05,25,04,36,8.60
2012,05,25,04,37,8.60
2012,05,25,04,38,8.60
2012,05,25,04,39,8.60
2012,05,25,04,40,8.60
2012,05,25,04,41,8.60
2012,05,25,04,42,8.60
2012,05,25,04,43,8.70
2012,05,25,04,44,8.70
2012,05,25,04,45,8.70
2012,05,25,04,46,8.60
2012,05,25,04,47,8.60
2012,05,25,04,48,8.60
2012,05,25,04,49,8.60
2012,05,25,04,50,8.60
2012,05,25,04,51,8.60
2012,05,25,04,52,8.70
2012,05,25,04,53,8.70
2012,05,25,04,54,8.70
2012,05,25,04,55,8.70
2012,05,25,04,56,8.70
2012,05,25,04,57,8.80
2012,05,25,04,58,8.80
2012,05,25,04,59,8.80
2012,05,25,05,00,8.80
2012,05,25,05,01,8.80
2012,05,25,05,02,8.70
2012,05,25,05,03,8.70
2012,05,25,05,04,8.70
2012,05,25,05,05,8.70
2012,05,25,05,06,8.70
2012,05,25,05,07,8.70
2012,05,25,05,08,8.70
2012,05,25,05,09,8.70
2012,05,25,05,10,8.70
2012,05,25,05,11,8.70
2012,05,25,05,12,8.70
2012,05,25,05,13,8.70
2012,05,25,05,14,8.70
2012,05,25,05,15,8.70
2012,05,25,05,16,8.70
2012,05,25,05,17,8.70
2012,05,25,05,18,8.70
2012,05,25,05,19,8.80
2012,05,25,05,20,8.90
2012,05,25,05,21,9.00
2012,05,25,05,22,9.20
2012,05,25,05,23,9.20
2012,05,25,05,24,9.20
2012,05,25,05,25,9.30
2012,05,25,05,26,9.30
2012,05,25,05,27,9.30
2012,05,25,05,28,9.30
2012,05,25,05,29,9.30
2012,05,25,05,30,9.40
2012,05,25,05,31,9.40
2012,05,25,05,32,9.50
2012,05,25,05,33,9.50
2012,05,25,05,34,9.50
2012,05,25,05,35,9.50
2012,05,25,05,36,9.40
2012,05,25,05,37,9.30
2012,05,25,05,38,9.30
2012,05,25,05,39,9.20
2012,05,25,05,40,9.20
2012,05,25,05,41,9.20
2012,05,25,05,42,9.20
2012,05,25,05,43,9.10
2012,05,25,05,44,9.10
2012,05,25,05,45,9.10
2012,05,25,05,46,9.00
2012,05,25,05,47,9.00
2012,05,25,05,48,8.90
2012,05,25,05,49,8.90
2012,05,25,05,50,8.90
2012,05,25,05,51,8.90
2012,05,25,05,52,8.90
2012,05,25,05,53,8.90
2012,05,25,05,54,8.90
2012,05,25,05,55,9.00
2012,05,25,05,56,9.00
2012,05,25,05,57,9.10
2012,05,25,05,58,9.10
2012,05,25,05,59,9.20
2012,05,25,06,00,9.20
2012,05,25,06,01,9.20
2012,05,25,06,02,9.20
2012,05,25,06,03,9.20
2012,05,25,06,04,9.20
2012,05,25,06,05,9.20
2012,05,25,06,06,9.20
2012,05,25,06,07,9.20
2012,05,25,06,08,9.20
2012,05,25,06,09,9.30
2012,05,25,06,10,9.30
2012,05,25,06,11,9.30
2012,05,25,06,12,9.30
2012,05,25,06,13,9.40
2012,05,25,06,14,9.40
2012,05,25,06,15,9.30
2012,05,25,06,16,9.30
2012,05,25,06,17,9.30
2012,05,25,06,18,9.30
2012,05,25,06,19,9.30
2012,05,25,06,20,9.30
2012,05,25,06,21,9.30
2012,05,25,06,22,9.30
2012,05,25,06,23,9.30
2012,05,25,06,24,9.30
2012,05,25,06,25,9.20
2012,05,25,06,26,9.30
2012,05,25,06,27,9.30
2012,05,25,06,28,9.30
2012,05,25,06,29,9.30
2012,05,25,06,30,9.30
2012,05,25,06,31,9.30
2012,05,25,06,32,9.40
2012,05,25,06,33,9.40
2012,05,25,06,34,9.40
2012,05,25,06,35,9.40
2012,05,25,06,36,9.50
2012,05,25,06,37,9.50
2012,05,25,06,38,9.60
2012,05,25,06,39,9.60
2012,05,25,06,40,9.70
2012,05,25,06,41,9.70
2012,05,25,06,42,9.70
2012,05,25,06,43,9.70
2012,05,25,06,44,9.80
2012,05,25,06,45,9.80
2012,05,25,06,46,9.90
2012,05,25,06,47,9.90
2012,05,25,06,48,9.90
2012,05,25,06,49,9.90
2012,05,25,06,50,9.90
2012,05,25,06,51,10.00
2012,05,25,06,52,10.10
2012,05,25,06,53,10.10
2012,05,25,06,54,10.10
2012,05,25,06,55,10.10
2012,05,25,06,56,10.20
2012,05,25,06,57,10.20
2012,05,25,06,58,10.30
2012,05,25,06,59,10.30
2012,05,25,07,00,10.40
2012,05,25,07,01,10.40
2012,05,25,07,02,10.40
2012,05,25,07,03,10.50
2012,05,25,07,04,10.60
2012,05,25,07,05,10.60
2012,05,25,07,06,10.60
2012,05,25,07,07,10.60
2012,05,25,07,08,10.70
2012,05,25,07,09,10.70
2012,05,25,07,10,10.80
2012,05,25,07,11,10.80
2012,05,25,07,12,10.90
2012,05,25,07,13,10.90
2012,05,25,07,14,10.90
2012,05,25,07,15,10.90
2012,05,25,07,16,10.90
2012,05,25,07,17,11.00
2012,05,25,07,18,11.10
2012,05,25,07,19,11.10
2012,05,25,07,20,11.10
2012,05,25,07,21,11.10
2012,05,25,07,22,11.10
2012,05,25,07,23,11.20
2012,05,25,07,24,11.20
2012,05,25,07,25,11.20
2012,05,25,07,26,11.30
2012,05,25,07,27,11.30
2012,05,25,07,28,11.40
2012,05,25,07,29,11.40
2012,05,25,07,30,11.40
2012,05,25,07,31,11.50
2012,05,25,07,32,11.60
2012,05,25,07,33,11.60
2012,05,25,07,34,11.60
2012,05,25,07,35,11.70
2012,05,25,07,36,11.80
2012,05,25,07,37,11.80
2012,05,25,07,38,11.80
2012,05,25,07,39,11.90
2012,05,25,07,40,11.90
2012,05,25,07,41,12.00
2012,05,25,07,42,12.00
2012,05,25,07,43,12.00
2012,05,25,07,44,12.10
2012,05,25,07,45,12.10
2012,05,25,07,46,12.10
2012,05,25,07,47,12.20
2012,05,25,07,48,12.20
2012,05,25,07,49,12.20
2012,05,25,07,50,12.30
2012,05,25,07,51,12.30
2012,05,25,07,52,12.30
2012,05,25,07,53,12.40
2012,05,25,07,54,12.40
2012,05,25,07,55,12.50
2012,05,25,07,56,12.50
2012,05,25,07,57,12.60
2012,05,25,07,58,12.60
2012,05,25,07,59,12.70
2012,05,25,08,00,12.80
2012,05,25,08,01,12.80
2012,05,25,08,02,12.80
2012,05,25,08,03,12.90
2012,05,25,08,04,12.90
2012,05,25,08,05,13.00
2012,05,25,08,06,13.00
2012,05,25,08,07,13.10
2012,05,25,08,08,13.20
2012,05,25,08,09,13.20
2012,05,25,08,10,13.30
2012,05,25,08,11,13.30
2012,05,25,08,12,13.40
2012,05,25,08,13,13.40
2012,05,25,08,14,13.50
2012,05,25,08,15,13.50
2012,05,25,08,16,13.60
2012,05,25,08,17,13.70
2012,05,25,08,18,13.70
2012,05,25,08,19,13.80
2012,05,25,08,20,13.80
2012,05,25,08,21,13.80
2012,05,25,08,22,13.80
2012,05,25,08,23,13.80
2012,05,25,08,24,13.80
2012,05,25,08,25,13.90
2012,05,25,08,26,13.90
2012,05,25,08,27,13.90
2012,05,25,08,28,14.00
2012,05,25,08,29,14.00
2012,05,25,08,30,14.10
2012,05,25,08,31,14.10
2012,05,25,08,32,14.10
2012,05,25,08,33,14.10
2012,05,25,08,34,14.10
2012,05,25,08,35,14.10
2012,05,25,08,36,14.20
2012,05,25,08,37,14.20
2012,05,25,08,38,14.20
2012,05,25,08,39,14.20
2012,05,25,08,40,14.20
2012,05,25,08,41,14.20
2012,05,25,08,42,14.20
2012,05,25,08,43,14.20
2012,05,25,08,44,14.20
2012,05,25,08,45,14.20
2012,05,25,08,46,14.30
2012,05,25,08,47,14.30
2012,05,25,08,48,14.30
2012,05,25,08,49,14.30
2012,05,25,08,50,14.40
2012,05,25,08,51,14.50
2012,05,25,08,52,14.50
2012,05,25,08,53,14.50
2012,05,25,08,54,14.60
2012,05,25,08,55,14.60
2012,05,25,08,56,14.50
2012,05,25,08,57,14.50
2012,05,25,08,58,14.60
2012,05,25,08,59,14.60
2012,05,25,09,00,14.60
2012,05,25,09,01,14.70
2012,05,25,09,02,14.80
2012,05,25,09,03,14.80
2012,05,25,09,04,14.80
2012,05,25,09,05,14.80
2012,05,25,09,06,14.80
2012,05,25,09,07,14.80
2012,05,25,09,08,14.90
2012,05,25,09,09,14.90
2012,05,25,09,10,14.90
2012,05,25,09,11,15.00
2012,05,25,09,12,15.00
2012,05,25,09,13,15.10
2012,05,25,09,14,15.20
2012,05,25,09,15,15.30
2012,05,25,09,16,15.30
2012,05,25,09,17,15.30
2012,05,25,09,18,15.20
2012,05,25,09,19,15.10
2012,05,25,09,20,15.10
2012,05,25,09,21,15.00
2012,05,25,09,22,15.00
2012,05,25,09,23,14.90
2012,05,25,09,24,14.80
2012,05,25,09,25,14.80
2012,05,25,09,26,14.80
2012,05,25,09,27,14.80
2012,05,25,09,28,14.80
2012,05,25,09,29,14.70
2012,05,25,09,30,14.80
2012,05,25,09,31,14.70
2012,05,25,09,32,14.70
2012,05,25,09,33,14.70
2012,05,25,09,34,14.70
2012,05,25,09,35,14.80
2012,05,25,09,36,14.80
2012,05,25,09,37,14.80
2012,05,25,09,38,14.90
2012,05,25,09,39,15.00
2012,05,25,09,40,15.00
2012,05,25,09,41,14.90
2012,05,25,09,42,14.90
2012,05,25,09,43,14.90
2012,05,25,09,44,14.90
2012,05,25,09,45,14.80
2012,05,25,09,46,14.80
2012,05,25,09,47,14.90
2012,05,25,09,48,14.90
2012,05,25,09,49,14.90
2012,05,25,09,50,15.00
2012,05,25,09,51,15.00
2012,05,25,09,52,15.00
2012,05,25,09,53,15.10
2012,05,25,09,54,15.10
2012,05,25,09,55,15.10
2012,05,25,09,56,15.00
2012,05,25,09,57,15.00
2012,05,25,09,58,15.00
2012,05,25,09,59,15.00
2012,05,25,10,00,15.00
2012,05,25,10,01,15.00
2012,05,25,10,02,15.00
2012,05,25,10,03,15.10
2012,05,25,10,04,15.10
2012,05,25,10,05,15.20
2012,05,25,10,06,15.20
2012,05,25,10,07,15.10
2012,05,25,10,08,15.10
2012,05,25,10,09,15.10
2012,05,25,10,10,15.00
2012,05,25,10,11,15.00
2012,05,25,10,12,15.00
2012,05,25,10,13,15.00
2012,05,25,10,14,15.00
2012,05,25,10,15,15.10
2012,05,25,10,16,15.20
2012,05,25,10,17,15.30
2012,05,25,10,18,15.40
2012,05,25,10,19,15.60
2012,05,25,10,20,15.60
2012,05,25,10,21,15.60
2012,05,25,10,22,15.60
2012,05,25,10,23,15.70
2012,05,25,10,24,15.70
2012,05,25,10,25,15.60
2012,05,25,10,26,15.60
2012,05,25,10,27,15.60
2012,05,25,10,28,15.60
2012,05,25,10,29,15.70
2012,05,25,10,30,15.80
2012,05,25,10,31,15.80
2012,05,25,10,32,15.80
2012,05,25,10,33,15.80
2012,05,25,10,34,15.90
2012,05,25,10,35,15.90
2012,05,25,10,36,15.80
2012,05,25,10,37,15.70
2012,05,25,10,38,15.60
2012,05,25,10,39,15.60
2012,05,25,10,40,15.50
2012,05,25,10,41,15.50
2012,05,25,10,42,15.50
2012,05,25,10,43,15.50
2012,05,25,10,44,15.60
2012,05,25,10,45,15.60
2012,05,25,10,46,15.60
2012,05,25,10,47,15.70
2012,05,25,10,48,15.70
2012,05,25,10,49,15.80
2012,05,25,10,50,15.80
2012,05,25,10,51,15.80
2012,05,25,10,52,15.70
2012,05,25,10,53,15.80
2012,05,25,10,54,15.80
2012,05,25,10,55,15.80
2012,05,25,10,56,15.80
2012,05,25,10,57,15.80
2012,05,25,10,58,15.90
2012,05,25,10,59,16.00
2012,05,25,11,00,16.10
2012,05,25,11,01,16.10
2012,05,25,11,02,16.10
2012,05,25,11,03,16.20
2012,05,25,11,04,16.20
2012,05,25,11,05,16.20
2012,05,25,11,06,16.10
2012,05,25,11,07,16.10
2012,05,25,11,08,16.00
2012,05,25,11,09,16.00
2012,05,25,11,10,16.10
2012,05,25,11,11,16.10
2012,05,25,11,12,16.10
2012,05,25,11,13,16.00
2012,05,25,11,14,15.90
2012,05,25,11,15,15.90
2012,05,25,11,16,15.90
2012,05,25,11,17,16.00
2012,05,25,11,18,16.10
2012,05,25,11,19,16.10
2012,05,25,11,20,16.10
2012,05,25,11,21,16.10
2012,05,25,11,22,16.10
2012,05,25,11,23,16.10
2012,05,25,11,24,16.10
2012,05,25,11,25,16.10
2012,05,25,11,26,16.10
2012,05,25,11,27,16.20
2012,05,25,11,28,16.20
2012,05,25,11,29,16.30
2012,05,25,11,30,16.30
2012,05,25,11,31,16.40
2012,05,25,11,32,16.40
2012,05,25,11,33,16.40
2012,05,25,11,34,16.40
2012,05,25,11,35,16.40
2012,05,25,11,36,16.40
2012,05,25,11,37,16.40
2012,05,25,11,38,16.50
2012,05,25,11,39,16.60
2012,05,25,11,40,16.70
2012,05,25,11,41,16.60
2012,05,25,11,42,16.70
2012,05,25,11,43,16.70
2012,05,25,11,44,16.80
2012,05,25,11,45,16.80
2012,05,25,11,46,16.90
2012,05,25,11,47,16.90
2012,05,25,11,48,16.90
2012,05,25,11,49,16.90
2012,05,25,11,50,16.90
2012,05,25,11,51,16.90
2012,05,25,11,52,16.90
2012,05,25,11,53,16.80
2012,05,25,11,54,16.70
2012,05,25,11,55,16.70
2012,05,25,11,56,16.70
2012,05,25,11,57,16.70
2012,05,25,11,58,16.80
2012,05,25,11,59,16.90
2012,05,25,12,00,17.10
2012,05,25,12,01,17.20
2012,05,25,12,02,17.30
2012,05,25,12,03,17.40
2012,05,25,12,04,17.40
2012,05,25,12,05,17.40
2012,05,25,12,06,17.30
2012,05,25,12,07,17.30
2012,05,25,12,08,17.30
2012,05,25,12,09,17.20
2012,05,25,12,10,17.30
2012,05,25,12,11,17.40
2012,05,25,12,12,17.50
2012,05,25,12,13,17.60
2012,05,25,12,14,17.60
2012,05,25,12,15,17.70
2012,05,25,12,16,17.80
2012,05,25,12,17,17.80
2012,05,25,12,18,17.70
2012,05,25,12,19,17.70
2012,05,25,12,20,17.70
2012,05,25,12,21,17.60
2012,05,25,12,22,17.60
2012,05,25,12,23,17.60
2012,05,25,12,24,17.60
2012,05,25,12,25,17.70
2012,05,25,12,26,17.70
2012,05,25,12,27,17.80
2012,05,25,12,28,17.90
2012,05,25,12,29,18.10
2012,05,25,12,30,18.20
2012,05,25,12,31,18.20
2012,05,25,12,32,18.20
2012,05,25,12,33,18.10
2012,05,25,12,34,18.10
2012,05,25,12,35,18.00
2012,05,25,12,36,17.90
2012,05,25,12,37,17.80
2012,05,25,12,38,17.80
2012,05,25,12,39,17.80
2012,05,25,12,40,17.80
2012,05,25,12,41,17.80
2012,05,25,12,42,17.70
2012,05,25,12,43,17.70
2012,05,25,12,44,17.70
2012,05,25,12,45,17.70
2012,05,25,12,46,17.70
2012,05,25,12,47,17.70
2012,05,25,12,48,17.70
2012,05,25,12,49,17.70
2012,05,25,12,50,17.70
2012,05,25,12,51,17.60
2012,05,25,12,52,17.60
2012,05,25,12,53,17.60
2012,05,25,12,54,17.70
2012,05,25,12,55,17.70
2012,05,25,12,56,17.80
2012,05,25,12,57,17.80
2012,05,25,12,58,17.90
2012,05,25,12,59,18.00
2012,05,25,13,00,18.10
2012,05,25,13,01,18.30
2012,05,25,13,02,18.50
2012,05,25,13,03,18.50
2012,05,25,13,04,18.50
2012,05,25,13,05,18.50
2012,05,25,13,06,18.40
2012,05,25,13,07,18.40
2012,05,25,13,08,18.30
2012,05,25,13,09,18.20
2012,05,25,13,10,18.20
2012,05,25,13,11,18.10
2012,05,25,13,12,18.10
2012,05,25,13,13,18.20
2012,05,25,13,14,18.20
2012,05,25,13,15,18.40
2012,05,25,13,16,18.60
2012,05,25,13,17,18.60
2012,05,25,13,18,18.70
2012,05,25,13,19,18.70
2012,05,25,13,20,18.70
2012,05,25,13,21,18.80
2012,05,25,13,22,18.80
2012,05,25,13,23,18.90
2012,05,25,13,24,19.00
2012,05,25,13,25,19.10
2012,05,25,13,26,19.10
2012,05,25,13,27,19.30
2012,05,25,13,28,19.40
2012,05,25,13,29,19.40
2012,05,25,13,30,19.30
2012,05,25,13,31,19.40
2012,05,25,13,32,19.30
2012,05,25,13,33,19.30
2012,05,25,13,34,19.40
2012,05,25,13,35,19.40
2012,05,25,13,36,19.50
2012,05,25,13,37,19.40
2012,05,25,13,38,19.40
2012,05,25,13,39,19.40
2012,05,25,13,40,19.40
2012,05,25,13,41,19.30
2012,05,25,13,42,19.30
2012,05,25,13,43,19.20
2012,05,25,13,44,19.20
2012,05,25,13,45,19.20
2012,05,25,13,46,19.20
2012,05,25,13,47,19.20
2012,05,25,13,48,19.30
2012,05,25,13,49,19.40
2012,05,25,13,50,19.40
2012,05,25,13,51,19.40
2012,05,25,13,52,19.40
2012,05,25,13,53,19.40
2012,05,25,13,54,19.50
2012,05,25,13,55,19.60
2012,05,25,13,56,19.60
2012,05,25,13,57,19.60
2012,05,25,13,58,19.60
2012,05,25,13,59,19.60
2012,05,25,14,00,19.60
2012,05,25,14,01,19.60
2012,05,25,14,02,19.70
2012,05,25,14,03,19.70
2012,05,25,14,04,19.80
2012,05,25,14,05,19.90
2012,05,25,14,06,19.90
2012,05,25,14,07,19.90
2012,05,25,14,08,20.00
2012,05,25,14,09,20.10
2012,05,25,14,10,20.10
2012,05,25,14,11,20.20
2012,05,25,14,12,20.10
2012,05,25,14,13,20.10
2012,05,25,14,14,20.10
2012,05,25,14,15,19.90
2012,05,25,14,16,19.90
2012,05,25,14,17,19.80
2012,05,25,14,18,19.70
2012,05,25,14,19,19.70
2012,05,25,14,20,19.70
2012,05,25,14,21,19.70
2012,05,25,14,22,19.80
2012,05,25,14,23,19.70
2012,05,25,14,24,19.70
2012,05,25,14,25,19.70
2012,05,25,14,26,19.80
2012,05,25,14,27,19.80
2012,05,25,14,28,19.90
2012,05,25,14,29,19.90
2012,05,25,14,30,19.90
2012,05,25,14,31,19.90
2012,05,25,14,32,19.90
2012,05,25,14,33,19.90
2012,05,25,14,34,19.90
2012,05,25,14,35,19.90
2012,05,25,14,36,19.90
2012,05,25,14,37,20.00
2012,05,25,14,38,20.10
2012,05,25,14,39,20.20
2012,05,25,14,40,20.20
2012,05,25,14,41,20.20
2012,05,25,14,42,20.30
2012,05,25,14,43,20.30
2012,05,25,14,44,20.30
2012,05,25,14,45,20.50
2012,05,25,14,46,20.60
2012,05,25,14,47,20.60
2012,05,25,14,48,20.70
2012,05,25,14,49,20.70
2012,05,25,14,50,20.60
2012,05,25,14,51,20.60
2012,05,25,14,52,20.60
2012,05,25,14,53,20.60
2012,05,25,14,54,20.60
2012,05,25,14,55,20.60
2012,05,25,14,56,20.70
2012,05,25,14,57,20.80
2012,05,25,14,58,20.80
2012,05,25,14,59,20.80
2012,05,25,15,00,20.90
2012,05,25,15,01,20.90
2012,05,25,15,02,21.00
2012,05,25,15,03,21.00
2012,05,25,15,04,21.00
2012,05,25,15,05,21.10
2012,05,25,15,06,21.10
2012,05,25,15,07,21.10
2012,05,25,15,08,21.20
2012,05,25,15,09,21.20
2012,05,25,15,10,21.30
2012,05,25,15,11,21.30
2012,05,25,15,12,21.30
2012,05,25,15,13,21.30
2012,05,25,15,14,21.30
2012,05,25,15,15,21.40
2012,05,25,15,16,21.50
2012,05,25,15,17,21.60
2012,05,25,15,18,21.60
2012,05,25,15,19,21.60
2012,05,25,15,20,21.60
2012,05,25,15,21,21.70
2012,05,25,15,22,21.70
2012,05,25,15,23,21.70
2012,05,25,15,24,21.60
2012,05,25,15,25,21.60
2012,05,25,15,26,21.60
2012,05,25,15,27,21.40
2012,05,25,15,28,21.40
2012,05,25,15,29,21.30
2012,05,25,15,30,21.40
2012,05,25,15,31,21.50
2012,05,25,15,32,21.60
2012,05,25,15,33,21.50
2012,05,25,15,34,21.40
2012,05,25,15,35,21.50
2012,05,25,15,36,21.60
2012,05,25,15,37,21.60
2012,05,25,15,38,21.60
2012,05,25,15,39,21.60
2012,05,25,15,40,21.60
2012,05,25,15,41,21.60
2012,05,25,15,42,21.60
2012,05,25,15,43,21.70
2012,05,25,15,44,21.80
2012,05,25,15,45,21.80
2012,05,25,15,46,21.80
2012,05,25,15,47,21.80
2012,05,25,15,48,21.70
2012,05,25,15,49,21.70
2012,05,25,15,50,21.70
2012,05,25,15,51,21.70
2012,05,25,15,52,21.70
2012,05,25,15,53,21.70
2012,05,25,15,54,21.70
2012,05,25,15,55,21.80
2012,05,25,15,56,21.80
2012,05,25,15,57,21.90
2012,05,25,15,58,21.90
2012,05,25,15,59,21.90
2012,05,25,16,00,21.80
2012,05,25,16,01,21.90
2012,05,25,16,02,22.00
2012,05,25,16,03,22.00
2012,05,25,16,04,22.00
2012,05,25,16,05,22.00
2012,05,25,16,06,22.10
2012,05,25,16,07,22.20
2012,05,25,16,08,22.30
2012,05,25,16,09,22.30
2012,05,25,16,10,22.30
2012,05,25,16,11,22.20
2012,05,25,16,12,22.20
2012,05,25,16,13,22.00
2012,05,25,16,14,21.90
2012,05,25,16,15,21.80
2012,05,25,16,16,21.70
2012,05,25,16,17,21.80
2012,05,25,16,18,21.90
2012,05,25,16,19,21.90
2012,05,25,16,20,22.00
2012,05,25,16,21,22.00
2012,05,25,16,22,22.00
2012,05,25,16,23,22.00
2012,05,25,16,24,22.00
2012,05,25,16,25,22.00
2012,05,25,16,26,22.10
2012,05,25,16,27,22.30
2012,05,25,16,28,22.30
2012,05,25,16,29,22.30
2012,05,25,16,30,22.10
2012,05,25,16,31,22.00
2012,05,25,16,32,22.00
2012,05,25,16,33,22.00
2012,05,25,16,34,22.00
2012,05,25,16,35,22.00
2012,05,25,16,36,21.90
2012,05,25,16,37,21.90
2012,05,25,16,38,22.00
2012,05,25,16,39,22.00
2012,05,25,16,40,22.00
2012,05,25,16,41,22.00
2012,05,25,16,42,22.10
2012,05,25,16,43,22.10
2012,05,25,16,44,22.10
2012,05,25,16,45,22.10
2012,05,25,16,46,22.10
2012,05,25,16,47,22.10
2012,05,25,16,48,22.20
2012,05,25,16,49,22.20
2012,05,25,16,50,22.30
2012,05,25,16,51,22.40
2012,05,25,16,52,22.40
2012,05,25,16,53,22.50
2012,05,25,16,54,22.50
2012,05,25,16,55,22.50
2012,05,25,16,56,22.50
2012,05,25,16,57,22.50
2012,05,25,16,58,22.50
2012,05,25,16,59,22.50
2012,05,25,17,00,22.40
2012,05,25,17,01,22.40
2012,05,25,17,02,22.40
2012,05,25,17,03,22.50
2012,05,25,17,04,22.60
2012,05,25,17,05,22.70
2012,05,25,17,06,22.70
2012,05,25,17,07,22.80
2012,05,25,17,08,22.80
2012,05,25,17,09,22.90
2012,05,25,17,10,23.00
2012,05,25,17,11,23.10
2012,05,25,17,12,23.10
2012,05,25,17,13,23.00
2012,05,25,17,14,22.90
2012,05,25,17,15,22.80
2012,05,25,17,16,22.80
2012,05,25,17,17,22.70
2012,05,25,17,18,22.60
2012,05,25,17,19,22.60
2012,05,25,17,20,22.70
2012,05,25,17,21,22.70
2012,05,25,17,22,22.70
2012,05,25,17,23,22.70
2012,05,25,17,24,22.70
2012,05,25,17,25,22.60
2012,05,25,17,26,22.70
2012,05,25,17,27,22.70
2012,05,25,17,28,22.80
2012,05,25,17,29,22.90
2012,05,25,17,30,22.90
2012,05,25,17,31,22.90
2012,05,25,17,32,22.90
2012,05,25,17,33,23.00
2012,05,25,17,34,23.10
2012,05,25,17,35,23.10